| time (UTC) | temp C | wind direction | speed KPH | gust KPH | rain 1hr cm | rain 24hr cm | rain mn cm | humidity % | barometer mb |
| 20260505193126 | 24 | 350 | 4.8 | 16.1 | 0.00 | 0.00 | 0.00 | 49 | 1012.6 |
| 20260505193116 | 23 | 14 | 6.4 | 19.3 | 0.00 | 0.00 | 0.00 | 50 | 1012.7 |
| 20260505183041 | 22 | 348 | 4.8 | 17.7 | 0.00 | 0.00 | 0.00 | 55 | 1013.0 |
| 20260505174536 | 20 | 340 | 4.8 | 17.7 | 0.00 | 0.00 | 0.00 | 60 | 1013.0 |
| 20260505173035 | 20 | 305 | 4.8 | 17.7 | 0.00 | 0.00 | 0.00 | 61 | 1012.9 |
| 20260505171535 | 20 | 318 | 3.2 | 11.3 | 0.00 | 0.00 | 0.00 | 63 | 1013.0 |
| 20260505170042 | 19 | 310 | 3.2 | 16.1 | 0.00 | 0.00 | 0.00 | 63 | 1012.9 |
| 20260505164535 | 18 | 298 | 3.2 | 17.7 | 0.00 | 0.00 | 0.00 | 65 | 1012.9 |
| 20260505163058 | 18 | 298 | 4.8 | 17.7 | 0.00 | 0.00 | 0.00 | 67 | 1013.0 |
| 20260505161536 | 17 | 289 | 4.8 | 20.9 | 0.00 | 0.00 | 0.00 | 70 | 1013.1 |
| 20260505153035 | 16 | 106 | 1.6 | 11.3 | 0.00 | 0.00 | 0.00 | 81 | 1012.8 |
| 20260505151532 | 15 | 183 | 1.6 | 8.0 | 0.00 | 0.00 | 0.00 | 84 | 1012.7 |
| 20260505124530 | 9 | 261 | 0.0 | 6.4 | 0.00 | 0.00 | 0.00 | 92 | 1011.2 |
| 20260505121608 | 10 | 225 | 1.6 | 3.2 | 0.00 | 0.00 | 0.00 | 90 | 1010.9 |
| 20260505120035 | 10 | 220 | 1.6 | 6.4 | 0.00 | 0.00 | 0.00 | 89 | 1010.9 |
| 20260505114534 | 11 | 201 | 0.0 | 3.2 | 0.00 | 0.00 | 0.00 | 89 | 1010.8 |
| 20260505101531 | 10 | 202 | 1.6 | 4.8 | 0.00 | 0.00 | 0.00 | 91 | 1010.1 |
| 20260505100044 | 10 | 202 | 1.6 | 4.8 | 0.00 | 0.00 | 0.00 | 90 | 1010.0 |
| 20260505094535 | 10 | 209 | 1.6 | 4.8 | 0.00 | 0.00 | 0.00 | 90 | 1009.9 |
| 20260505091535 | 11 | 241 | 1.6 | 6.4 | 0.00 | 0.00 | 0.00 | 89 | 1009.8 |
| 20260505090036 | 11 | 248 | 1.6 | 3.2 | 0.00 | 0.00 | 0.00 | 88 | 1009.7 |
| 20260505084610 | 11 | 296 | 0.0 | 8.0 | 0.00 | 0.00 | 0.00 | 87 | 1009.7 |
| 20260505083033 | 11 | 214 | 3.2 | 6.4 | 0.00 | 0.00 | 0.00 | 85 | 1009.7 |
| 20260505081536 | 12 | 202 | 0.0 | 3.2 | 0.00 | 0.00 | 0.00 | 84 | 1009.6 |
| 20260505080028 | 12 | 202 | 0.0 | 3.2 | 0.00 | 0.00 | 0.00 | 83 | 1009.6 |
| 20260505073037 | 13 | 185 | 0.0 | 1.6 | 0.00 | 0.00 | 0.00 | 78 | 1009.5 |
| 20260505071537 | 14 | 199 | 1.6 | 6.4 | 0.00 | 0.00 | 0.00 | 75 | 1009.3 |
| 20260505070119 | 15 | 230 | 1.6 | 6.4 | 0.00 | 0.00 | 0.00 | 70 | 1009.2 |
| 20260505063034 | 18 | 224 | 0.0 | 8.0 | 0.00 | 0.00 | 0.00 | 60 | 1009.0 |
| 20260505061536 | 20 | 228 | 3.2 | 12.9 | 0.00 | 0.00 | 0.00 | 58 | 1008.9 |
| 20260505060036 | 20 | 254 | 3.2 | 16.1 | 0.00 | 0.00 | 0.00 | 57 | 1008.8 |
| 20260505053036 | 17 | 311 | 6.4 | 17.7 | 0.00 | 0.00 | 0.00 | 65 | 1008.6 |
| 20260505051536 | 17 | 354 | 1.6 | 12.9 | 0.00 | 0.00 | 0.00 | 62 | 1008.7 |
| 20260505041536 | 20 | 211 | 0.0 | 6.4 | 0.00 | 0.00 | 0.00 | 52 | 1007.8 |
| 20260505040050 | 20 | 245 | 1.6 | 11.3 | 0.00 | 0.00 | 0.00 | 52 | 1007.6 |
| 20260505034534 | 20 | 263 | 3.2 | 14.5 | 0.00 | 0.00 | 0.00 | 55 | 1007.4 |
| 20260505033032 | 20 | 230 | 1.6 | 8.0 | 0.00 | 0.00 | 0.00 | 55 | 1007.2 |
| 20260505030038 | 22 | 249 | 1.6 | 11.3 | 0.00 | 0.00 | 0.00 | 48 | 1006.9 |
| 20260505024533 | 23 | 254 | 3.2 | 9.7 | 0.00 | 0.00 | 0.00 | 47 | 1006.7 |
| 20260505021536 | 24 | 257 | 1.6 | 12.9 | 0.00 | 0.00 | 0.00 | 44 | 1006.6 |
| 20260505020035 | 26 | 295 | 1.6 | 11.3 | 0.00 | 0.00 | 0.00 | 42 | 1006.6 |
| 20260505014645 | 27 | 315 | 3.2 | 12.9 | 0.00 | 0.00 | 0.00 | 40 | 1006.6 |
| 20260505013147 | 27 | 317 | 4.8 | 14.5 | 0.00 | 0.00 | 0.00 | 40 | 1006.6 |
| 20260505011536 | 27 | 345 | 3.2 | 11.3 | 0.00 | 0.00 | 0.00 | 42 | 1006.6 |
| 20260505010038 | 28 | 2 | 1.6 | 11.3 | 0.00 | 0.00 | 0.00 | 41 | 1006.6 |
| 20260505004530 | 27 | 351 | 3.2 | 12.9 | 0.00 | 0.00 | 0.00 | 41 | 1006.6 |
| 20260505003036 | 27 | 12 | 3.2 | 9.7 | 0.00 | 0.00 | 0.00 | 41 | 1006.7 |
| 20260505001536 | 28 | 23 | 9.7 | 20.9 | 0.00 | 0.00 | 0.00 | 40 | 1006.7 |
| 20260505000043 | 28 | 4 | 3.2 | 9.7 | 0.00 | 0.00 | 0.00 | 40 | 1006.8 |
| 20260504234536 | 27 | 20 | 3.2 | 17.7 | 0.00 | 0.00 | 0.00 | 43 | 1006.7 |
| 20260504233039 | 27 | 23 | 8.0 | 19.3 | 0.00 | 0.00 | 0.00 | 41 | 1006.7 |
| 20260504231536 | 28 | 18 | 8.0 | 17.7 | 0.00 | 0.00 | 0.00 | 39 | 1006.8 |
| 20260504230038 | 29 | 9 | 6.4 | 16.1 | 0.00 | 0.00 | 0.00 | 39 | 1007.0 |
| 20260504224537 | 29 | 353 | 4.8 | 14.5 | 0.00 | 0.00 | 0.00 | 39 | 1007.2 |
| 20260504223036 | 28 | 4 | 4.8 | 14.5 | 0.00 | 0.00 | 0.00 | 40 | 1007.4 |
| 20260504221536 | 29 | 10 | 4.8 | 16.1 | 0.00 | 0.00 | 0.00 | 38 | 1007.5 |
| 20260504220040 | 30 | 21 | 4.8 | 19.3 | 0.00 | 0.00 | 0.00 | 38 | 1007.6 |
| 20260504214535 | 29 | 341 | 3.2 | 11.3 | 0.00 | 0.00 | 0.00 | 38 | 1007.7 |
| 20260504213111 | 30 | 349 | 3.2 | 11.3 | 0.00 | 0.00 | 0.00 | 38 | 1007.9 |
| 20260504211555 | 30 | 5 | 4.8 | 14.5 | 0.00 | 0.00 | 0.00 | 37 | 1008.0 |
| 20260504210034 | 30 | 334 | 1.6 | 11.3 | 0.00 | 0.00 | 0.00 | 37 | 1008.0 |
| 20260504203036 | 29 | 320 | 3.2 | 14.5 | 0.00 | 0.00 | 0.00 | 38 | 1008.4 |
| 20260504201535 | 29 | 348 | 1.6 | 11.3 | 0.00 | 0.00 | 0.00 | 40 | 1008.5 |
| 20260504194552 | 28 | 355 | 3.2 | 12.9 | 0.00 | 0.00 | 0.00 | 40 | 1008.7 |